This demonstration page uses our WeatherBlox Daily Observations layout. Learn more.

Left ArrowRight Arrow

Hourly Observations for January 1, 2017

Temp ( °F °C ) Dew Point ( °F °C ) Humidity (%) Winds ( mph kmh ) Pressure ( in mb ) Visibility ( mi km ) Precip ( " mm )
12:51 am 00:51 Cloudy 48 8.9 47 8.3 96 96 E 5 7 29.85 1011 10 16 0.00 0.00
1:51 am 01:51 Cloudy 48 8.9 47 8.3 96 96 SE 5 7 29.83 1010 10 16 0.00 0.00
2:51 am 02:51 Clear 47 8.3 45 7.2 93 93 ENE 8 13 29.79 1009 10 16 0.00 0.00
3:51 am 03:51 Mostly Clear 47 8.3 44 6.7 90 90 ESE 6 9 29.78 1009 10 16 0.00 0.00
4:51 am 04:51 Partly Cloudy 48 8.9 44 6.7 86 86 ESE 13 20 29.75 1007 10 16 0.00 0.00
5:51 am 05:51 Mostly Clear 47 8.3 43 6.1 86 86 E 12 19 29.73 1007 10 16 0.00 0.00
6:05 am 06:05 Mostly Cloudy 47 8.3 43 6.1 86 86 E 13 20 29.80 1009 10 16 0.00 0.00
6:51 am 06:51 Clear 48 8.9 42 5.6 80 80 E 8 13 29.75 1007 10 16 0.00 0.00
7:51 am 07:51 Mostly Sunny 48 8.9 41 5 77 77 VRB 5 7 29.75 1008 10 16 0.00 0.00
8:51 am 08:51 Cloudy 51 10.6 40 4.4 66 66 ESE 13 20 29.74 1007 10 16 0.00 0.00
9:51 am 09:51 Cloudy 53 11.7 42 5.6 66 66 E 13 20 29.73 1007 10 16 0.00 0.00
10:51 am 10:51 Mostly Cloudy 54 12.2 43 6.1 67 67 ESE 9 15 29.72 1007 10 16 0.00 0.03
11:51 am 11:51 Cloudy with Light Rain 53 11.7 42 5.6 66 66 S 7 11 29.71 1006 10 16 0.03 0.76
12:51 pm 12:51 Mostly Sunny 54 12.2 45 7.2 72 72 NNW 12 19 29.70 1006 10 16 0.00 0.03
1:51 pm 13:51 Cloudy 54 12.2 41 5 62 62 NW 13 20 29.70 1006 10 16 0.06 1.52
2:51 pm 14:51 Sunny 54 12.2 41 5 62 62 WNW 9 15 29.69 1005 10 16 0.00 0.00
3:51 pm 15:51 Sunny 54 12.2 41 5 62 62 W 10 17 29.70 1006 10 16 0.00 0.00
4:51 pm 16:51 Partly Cloudy 52 11.1 41 5 66 66 WNW 13 20 29.75 1007 10 16 0.00 0.00
5:51 pm 17:51 Mostly Cloudy 48 8.9 41 5 77 77 NW 17 28 29.79 1009 10 16 0.00 0.03
6:51 pm 18:51 Clear 47 8.3 38 3.3 71 71 NNW 14 22 29.81 1010 10 16 0.00 0.00
7:51 pm 19:51 Clear 46 7.8 39 3.9 77 77 NW 15 24 29.85 1011 10 16 0.00 0.00
8:51 pm 20:51 Clear 45 7.2 39 3.9 80 80 NNW 14 22 29.86 1011 10 16 0.00 0.00
9:51 pm 21:51 Clear 44 6.7 39 3.9 83 83 NW 12 19 29.91 1013 10 16 0.00 0.00
10:51 pm 22:51 Partly Cloudy 43 6.1 39 3.9 86 86 NNW 6 9 29.93 1014 10 16 0.00 0.00
11:51 pm 23:51 Partly Cloudy 40 4.4 38 3.3 93 93 W 3 6 29.94 1014 10 16 0.00 0.00

Powered by AerisWeather